Location: *
(39.6167°S, 171.5333°W)
Time: 18:47:19
(UTC+00:00)

Cosmos 2219 - Pass Details

Date: 13 May 2021
Orbit: 832 x 861 km, 71.1° (Epoch: 19 June)

Event Time Altitude Azimuth Distance (km) Brightness Sun altitude
Exits shadow 15:23:02 35° 141° (SE) 1,373 4.5 -34.5°
Drops below altitude 10° 15:26:20 10° 152° (SSE) 2,518 6.0 -33.9°
Sets 15:28:49 0° 154° (SSE) 3,457 6.7 -33.4°
